THOR ABLESTAR DEB, 560

Orbit data source: Space-Track

THOR ABLESTAR DEB, 560 is space debris in LEO originally from a launch on Thu, 29 Jun 1961 UTC launched from the Air Force Eastern Test Range (AFETR). Debris objects in space refer to the collection of defunct objects orbiting the Earth. Examples of debris include non-operational satellites, rocket bodies, and fragments generated from explosions, collisions, or faulty payload assembly.

Loading next visibility...
Identifier
560, 1961-015GS
Orbit
LEO
Last TLE update
15 hours ago
Origin
Manufacturer
Unknown
Mission
Spacecraft
Bus & Motor
Unknown
Mass
Unknown
Launch date (UTC)
1961-06-29 (64 years ago)
Launch vehicle
Unknown
Launch site
Air Force Eastern Test Range (AFETR)
Object type
Payload
Rocket body
Debris
Shape & HBR
Unknown
Radar Cross Section
Small (<0.1 m²)

Expand to show TLE details & history

TLE from 15 hours ago
0 THOR ABLESTAR DEB
1 00560U 61015GS  25188.68237302  .00002209  00000-0  23103-2 0  9993
2 00560  67.1611 319.3892 0307941 200.1812 158.6861 13.58040609107603
Epoch: 2025-07-07T16:22Z
TLE epoch observation values (Epoch: 2025-07-07T16:22:37.028Z)
Latitude
-0.00011°
Longitude
147.84667°
Altitude
1,258.698 km
Speed
7.122 km/s
True Right ascension
21h 17m 33s
True Declination
0° 00' 00"
Sunlit
Object was in full shadow at epoch
Visualization orbit readout
Latitude
-41.53987°
Longitude
-11.81419°
Altitude
851.217 km
Speed
7.529 km/s
Apparent Right ascension
09h 15m 36s
Apparent Declination
-42° 44' 36"
Sunlit
Object is in daylight
Visualization observer readout
Local Sidereal Time
19:42:59
Azimuth
253.182° W
Elevation
-72.442°
Doppler factor
1
Orbital elements
Apogee altitude
1,269.67 km
Perigee altitude
812.726 km
Semi-major axis
7,419.335 km
Eccentricity
0.03079
Inclination
67.1611°
RAAN
319.3892°
Arg. of periapsis
200.1812°
True anomaly
Unknown
Mean anomaly
158.6861°
Eccentric anomaly
Unknown
Mean motion
3.39622 °/min
Orbital period
106 mins
BSTAR
0.0023103
Loading maneuver chart data...
Loading SW <> Apogee altitude chart data...

THOR ABLESTAR DEB Visibility forecast

Observer location: undefined°, undefined°

Span
Click to sort rows by Start time (UTC) header in descending order
Start Az.
Max El. time (UTC)
Max El. Az.
Max El.
End time (UTC)
End Az.
7 mins2025-07-08 08:25:24.730Z124.677° SE2025-07-08 08:28:24.730Z100.712° ESE14.429°2025-07-08 08:32:24.730Z69.096° E
13 mins2025-07-08 10:10:24.730Z199.749° SSW2025-07-08 10:16:24.730Z135.484° SSE44.448°2025-07-08 10:23:24.730Z31.318° NE
11 mins2025-07-08 12:01:24.730Z267.143° W2025-07-08 12:06:24.730Z314.167° NW23.91°2025-07-08 12:12:24.730Z8.999° NNE
7 mins2025-07-08 17:41:24.730Z7.001° NNE2025-07-08 17:44:24.730Z37.998° NE17.149°2025-07-08 17:48:24.730Z79.532° E
10 mins2025-07-08 19:29:24.730Z332.52° NNW2025-07-08 19:34:24.730Z8.554° NNE44.845°2025-07-08 19:39:24.730Z151.125° SSE
|